Location: Lombard
(41.8800°N, 88.0080°W)
Time: 20:25:02
(UTC-05:00)

Oscar 11 - Pass Details

Date: 30 May 2022
Orbit: 613 x 622 km, 97.6° (Epoch: 28 June)

Event Time Altitude Azimuth Distance (km) Brightness Sun altitude
Rises 04:35:12 0° 35° (NE) 2,900 12.3 -7.7°
Reaches altitude 10° 04:38:55 10° 69° (ENE) 1,989 11.1 -7.2°
Maximum altitude 04:40:26 12° 89° (E) 1,882 10.4 -7.0°
Drops below altitude 10° 04:41:56 10° 110° (ESE) 1,985 10.1 -6.8°
Sets 04:45:37 0° 143° (SE) 2,886 10.5 -6.2°
